Content
SEND FEEDBACK

Daily
Averages
Monthly
Summary
United States of America

STONY CREEK, VIRGINIA


Home > North America > United States > Virginia
Elevation: 100 feet     Latitude: 36 55N     Longitude: 077 21W

WEATHER
 
SELECT A DAY
Number of Records: 293,716;   Date Range: 2/28/02 - 8/28/14
 
SHARE

PRINT THIS DATA

[ ← Previous Day ]
WEATHER ALMANAC - JANUARY 31, 2013
[ Next Day → ]
[ °C ]   °F
Weather ElementAverageHighLow
Temperature46.1 °F69.8 °F (12:35 am)28.4 °F (11:55 pm)
Dewpoint31.6 °F62.6 °F (1:15 am)21.2 °F (3:35 pm)
Humidity59.1 %94 % (1:15 am)37 % (1:35 pm)
Barometer29.75 in30.01 in (10:55 pm)29.33 in (12:55 am)
Wind Speed13 mph25.3 mph (1:15 am)
Wind Gust38 mph (1:35 am)
Weather ElementAverage
Visibility9.7 mi
Wind DirectionSSW (203 °)

Weather ElementTotal
Precipitation0.88 in
Heating Degree Days15.9 (Base 65)
Averaged from 70 records on January 31, 2013
WEATHER CONDITIONS BREAKOUT
WIND DIRECTION BREAKOUT
WEATHER BY HOUR - JANUARY 31, 2013
[ °C ]   °F
Local TimeTemperatureDewpointHumidityBarometerVisibilityWind DirectionWind SpeedGust SpeedPrecipitationEventsConditions
12:35 AM69.8 °F60.8 °F73 %29.35 in10.0 miSE (140°)21.9 mph32.2 mphOvercast
12:55 AM68.0 °F60.8 °F78 %29.33 in7.0 miSSE (150°)18.4 mph34.5 mphRainLight Rain
1:15 AM64.4 °F62.6 °F94 %29.40 in3.0 miSSW (200°)25.3 mph32.2 mph0.19 inRainHeavy Rain
1:35 AM60.8 °F59.0 °F94 %29.41 in10.0 miSSW (210°)21.9 mph38.0 mph0.25 inRainLight Rain
1:55 AM60.8 °F55.4 °F82 %29.44 in7.0 miSSW (210°)24.2 mph34.5 mph0.26 inRainLight Rain
2:15 AM57.2 °F53.6 °F88 %29.43 in5.0 miSSW (200°)23.0 mph36.8 mph0.05 inRainRain
2:35 AM55.4 °F51.8 °F88 %29.43 in7.0 miSSW (200°)19.6 mph26.5 mph0.06 inRainRain
2:55 AM55.4 °F51.8 °F88 %29.41 in10.0 miSSW (200°)15.0 mph21.9 mph0.07 inRainLight Rain
3:15 AM55.4 °F50.0 °F82 %29.42 in10.0 miSouth (190°)13.8 mph21.9 mphRainLight Rain
3:35 AM53.6 °F50.0 °F88 %29.42 in10.0 miSSW (200°)12.7 mph27.6 mphOvercast
3:55 AM53.6 °F48.2 °F82 %29.44 in10.0 miSSW (200°)18.4 mph29.9 mphOvercast
4:15 AM53.6 °F46.4 °F77 %29.45 in10.0 miSSW (200°)21.9 mph34.5 mphScattered Clouds
4:35 AM53.6 °F46.4 °F77 %29.47 in10.0 miSSW (210°)18.4 mph26.5 mphScattered Clouds
4:55 AM51.8 °F44.6 °F76 %29.48 in10.0 miSSW (200°)17.3 mph27.6 mphMostly Cloudy
5:15 AM51.8 °F44.6 °F76 %29.50 in10.0 miSSW (200°)21.9 mph28.8 mphOvercast
5:35 AM51.8 °F44.6 °F76 %29.52 in10.0 miSSW (200°)20.7 mph31.1 mphRainLight Rain
5:55 AM50.0 °F44.6 °F82 %29.54 in10.0 miSW (220°)16.1 mph23.0 mphOvercast
6:15 AM50.0 °F44.6 °F82 %29.56 in10.0 miWest (260°)8.1 mph17.3 mphRainRain
6:35 AM50.0 °F41.0 °F71 %29.59 in10.0 miWSW (240°)13.8 mph25.3 mphOvercast
6:55 AM50.0 °F35.6 °F58 %29.60 in10.0 miWSW (250°)13.8 mph27.6 mphOvercast
7:15 AM48.2 °F35.6 °F62 %29.62 in10.0 miWSW (240°)10.4 mph34.5 mphOvercast
7:35 AM46.4 °F32.0 °F57 %29.64 in10.0 miWSW (250°)18.4 mph27.6 mphScattered Clouds
7:55 AM46.4 °F32.0 °F57 %29.66 in10.0 miWSW (240°)15.0 mph23.0 mphClear
8:15 AM46.4 °F32.0 °F57 %29.68 in10.0 miWSW (250°)11.5 mph21.9 mphClear
8:35 AM46.4 °F32.0 °F57 %29.71 in10.0 miWSW (240°)23.0 mph35.7 mphClear
8:55 AM44.6 °F30.2 °F57 %29.73 in10.0 miWSW (250°)13.8 mph25.3 mphClear
9:15 AM44.6 °F28.4 °F53 %29.74 in10.0 miWSW (250°)11.5 mph27.6 mphClear
9:35 AM44.6 °F28.4 °F53 %29.75 in10.0 miWest (260°)16.1 mph23.0 mphClear
9:55 AM44.6 °F28.4 °F53 %29.77 in10.0 miWSW (240°)17.3 mph25.3 mphClear
10:15 AM46.4 °F26.6 °F46 %29.79 in10.0 miWSW (240°)21.9 mph28.8 mphClear
10:35 AM46.4 °F26.6 °F46 %29.79 in10.0 miWSW (240°)15.0 mph25.3 mphClear
10:55 AM46.4 °F26.6 °F46 %29.79 in10.0 miSW (230°)16.1 mph24.2 mphClear
11:15 AM46.4 °F26.6 °F46 %29.80 in10.0 miWSW (240°)16.1 mph24.2 mphClear
11:35 AM46.4 °F24.8 °F43 %29.81 in10.0 miWSW (250°)17.3 mph28.8 mphClear
11:55 AM46.4 °F23.0 °F40 %29.80 in10.0 miWSW (240°)17.3 mph25.3 mphClear
12:15 PM46.4 °F26.6 °F46 %29.80 in10.0 miWSW (250°)12.7 mph24.2 mphClear
12:35 PM46.4 °F23.0 °F40 %29.80 in10.0 miSW (230°)13.8 mph25.3 mphClear
12:55 PM48.2 °F24.8 °F40 %29.79 in10.0 miWSW (250°)16.1 mph24.2 mphClear
1:15 PM46.4 °F23.0 °F40 %29.79 in10.0 miWSW (240°)16.1 mph25.3 mphClear
1:35 PM48.2 °F23.0 °F37 %29.80 in10.0 miSW (230°)16.1 mph21.9 mphScattered Clouds
1:55 PM48.2 °F23.0 °F37 %29.80 in10.0 miSW (230°)18.4 mph27.6 mphScattered Clouds
2:15 PM48.2 °F23.0 °F37 %29.81 in10.0 miSW (230°)13.8 mph26.5 mphClear
2:35 PM48.2 °F23.0 °F37 %29.82 in10.0 miWSW (240°)17.3 mph25.3 mphScattered Clouds
3:15 PM48.2 °F23.0 °F37 %29.83 in10.0 miSW (220°)17.3 mph26.5 mphMostly Cloudy
3:35 PM44.6 °F21.2 °F39 %29.85 in10.0 miWSW (240°)16.1 mph23.0 mphScattered Clouds
3:55 PM46.4 °F23.0 °F40 %29.86 in10.0 miWest (260°)16.1 mph25.3 mphMostly Cloudy
4:15 PM44.6 °F21.2 °F39 %29.87 in10.0 miSW (230°)15.0 mph24.2 mphMostly Cloudy
4:35 PM46.4 °F21.2 °F37 %29.88 in10.0 miSW (230°)13.8 mph25.3 mphMostly Cloudy
4:55 PM44.6 °F21.2 °F39 %29.89 in10.0 miWSW (240°)13.8 mph20.7 mphScattered Clouds
5:15 PM42.8 °F21.2 °F42 %29.90 in10.0 miWSW (250°)9.2 mph18.4 mphScattered Clouds
5:35 PM42.8 °F21.2 °F42 %29.91 in10.0 miWSW (240°)10.4 mph16.1 mphScattered Clouds
5:55 PM42.8 °F21.2 °F42 %29.92 in10.0 miWest (260°)9.2 mph17.3 mphScattered Clouds
6:15 PM41.0 °F21.2 °F45 %29.94 in10.0 miWSW (250°)8.1 mphClear
6:35 PM41.0 °F21.2 °F45 %29.95 in10.0 miWest (260°)8.1 mphClear
6:55 PM41.0 °F21.2 °F45 %29.96 in10.0 miWest (260°)8.1 mphClear
7:15 PM39.2 °F21.2 °F49 %29.97 in10.0 miWSW (250°)5.8 mphClear
7:35 PM39.2 °F21.2 °F49 %29.97 in10.0 miWest (260°)4.6 mphClear
7:55 PM37.4 °F21.2 °F52 %29.98 in10.0 miWSW (240°)3.5 mphClear
8:15 PM37.4 °F21.2 °F52 %29.98 in10.0 miSW (220°)4.6 mphClear
8:35 PM35.6 °F23.0 °F60 %29.98 in10.0 miCalmClear
8:55 PM33.8 °F23.0 °F65 %29.99 in10.0 miCalmClear
9:15 PM35.6 °F23.0 °F60 %29.99 in10.0 miSSW (210°)3.5 mphClear
9:35 PM35.6 °F21.2 °F56 %30.00 in10.0 miSW (220°)3.5 mphClear
9:55 PM35.6 °F21.2 °F56 %30.00 in10.0 miSW (230°)4.6 mphClear
10:15 PM33.8 °F23.0 °F65 %30.00 in10.0 miCalmClear
10:35 PM32.0 °F23.0 °F69 %30.00 in10.0 miCalmClear
10:55 PM30.2 °F23.0 °F75 %30.01 in10.0 miCalmClear
11:15 PM30.2 °F23.0 °F75 %30.01 in10.0 miCalmClear
11:35 PM30.2 °F23.0 °F75 %30.01 in10.0 miCalmClear
11:55 PM28.4 °F24.8 °F86 %30.01 in10.0 miCalmClear
Hourly data recorded from KEMV, located miles away from Stony Creek, Virginia







STORIES FROM OUR PARTNERS